Regional Weather Roundup
Issued by NWS

Home | Current Version | Previous Version | Text Only | Print | Product List | Glossary On
Versions: 1 2 3 4 5 6 7 8 9 10 11 12 13 14 15 16 17 18 19 20 21 22 23 24 25 26 27 28 29 30 31 32 33 34 35 36 37 38 39 40 41 42 43 44 45 46 47 48 49 50
534
ASUS43 KLSX 271310
RWRMO

WEATHER SUMMARY FOR MISSOURI
NATIONAL WEATHER SERVICE SPRINGFIELD MO
800 AM CDT WED JUL 27 2016

NOTE: "FAIR" INDICATES FEW OR NO CLOUDS BELOW 12,000 FEET WITH NO
       SIGNIFICANT WEATHER AND/OR OBSTRUCTIONS TO VISIBILITY.
       CURRENT SKY AND/OR WEATHER CONDITIONS ARE NOT AVAILABLE FOR
       CHILLICOTHE AND FARMINGTON.

MOZ001>031-035>038-043-044-053-054-271400-
...NORTHERN AND WESTERN MISSOURI...

CITY           SKY/WX    TMP DP  RH WIND       PRES   REMARKS
KANSAS CTY INT MOSUNNY   74  68  81 E5        29.98F
KANSAS C DTWN  SUNNY     75  69  81 N3        29.98F
LEE`S SUMMIT   SUNNY     73  69  87 E5        29.99F
ST JOSEPH      MOSUNNY   69  67  93 MISG      29.97F FOG
CHILLICOTHE      N/A     71  68  90 CALM      30.00F
KIRKSVILLE     MOSUNNY   73  66  78 CALM      30.01F

$$
MOZ066>068-077>081-088>096-101>105-271400-
...SOUTHWEST MISSOURI...

CITY           SKY/WX    TMP DP  RH WIND       PRES   REMARKS
SPRINGFIELD    LGT RAIN  74  72  93 SE9       30.01S
JOPLIN         CLOUDY    74  73  97 CALM      29.99S
BRANSON        CLOUDY    73  73 100 CALM      30.04R FOG

$$
MOZ032>034-039>042-045>050-055>058-069>072-271400-
...CENTRAL MISSOURI...

CITY           SKY/WX    TMP DP  RH WIND       PRES   REMARKS
COLUMBIA       SUNNY     75  74  96 S5        30.00S
JEFFERSON CITY MOSUNNY   75  73  93 SE3       29.99S
ROLLA          CLOUDY    73  72  96 SE3       30.01S
SEDALIA        SUNNY     77  73  87 S6        30.00S
WHITEMAN AFB   MOSUNNY   75  75 100 SW6       29.98F
OSAGE BEACH    CLOUDY    75  72  90 S3        30.01S

$$
MOZ051-052-059>065-271400-
...EAST CENTRAL MISSOURI...

CITY           SKY/WX    TMP DP  RH WIND       PRES   REMARKS
ST LOUIS INTL  CLOUDY    79  70  74 S5        30.01S
SPIRIT OF STL  CLOUDY    76  74  93 CALM      29.99F
ST CHARLES     CLOUDY    78  77  96 CALM      29.99S FOG

$$
MOZ072>076-082>087-097>100-106>115-271400-
...SOUTH CENTRAL AND SOUTHEAST MISSOURI...

CITY           SKY/WX    TMP DP  RH WIND       PRES   REMARKS
CAPE GIRARDEAU MOSUNNY   77  74  90 E5        29.99F
FARMINGTON     TSTM      70  69  97 SE5       30.05R
POPLAR BLUFF   FOG       75  74  96 NE3       29.99S VSB 1/2
WEST PLAINS    SUNNY     74  70  87 E3        30.04S

$$




USA.gov is the U.S. government's official web portal to all federal, state and local government web resources and services.